sat.trackr.live / text

‹ back to catalog

STARLINK-35010

NORAD 65281 · 2025-184J

PAYLOAD ACTIVE UNKNOWN

§ Identity

Operator
Country
US
Launch date
2025-08-22
Launch site
AFWTR
Launch vehicle
Mass (kg)
RCS (m²)

Purposes: comms

External: N2YO · Heavens-Above · Gunter

§ Orbital elements

Epoch: 2026-09-20T20:50:45.422592Z

Period
93.91 min
Inclination
97.2888°
Eccentricity
0.0000768
Mean motion
15.33451043 rev/d
Perigee alt
465.0 km
Apogee alt
466.1 km
Semi-major
6,843.7 km
B*
5.4966e-4
RAAN
311.8730°
Arg perigee
117.3707°
Mean anomaly
242.7614°
Rev number
6,078

§ Raw data

STARLINK-350101 65281U 25184J   26263.86858128  .00017715  00000+0  54966-3 0  99902 65281  97.2888 311.8730 0000768 117.3707 242.7614 15.33451043 60782

JSON: /api/v1/satellites/65281 · /tle

For live sub-satellite position, see the globe view (requires WebGL).

§ Visibility from observer

Set your observer location to see the next 7 days of passes ≥ 10°. The values pass through the URL so the page stays shareable.

No JS? Fill the form by hand. The geolocation button needs JavaScript.